Location: Kampung Segan
(3.1399°N, 113.1002°E)
Time: 13:50:16
(UTC+00:00)

Ariane H10 - Pass Details

Date: 05 August 2024
Orbit: 454 x 35941 km, 7.1° (Epoch: 09 September)

Event Time Altitude Azimuth Distance (km) Brightness Sun altitude
Exits shadow 21:09:19 44° 313° (NW) 626 1.8 -19.2°
Maximum altitude 21:09:51 53° 356° (N) 554 1.8 -19.0°
Drops below altitude 10° 21:13:10 10° 76° (ENE) 1,942 5.9 -18.2°
Sets 21:16:20 0° 81° (E) 3,626 7.6 -17.5°
